Time,TemperatureF,DewpointF,PressureIn,WindDirection,WindDirectionDegrees,WindSpeedMPH,WindSpeedGustMPH,Humidity,HourlyPrecipIn,Conditions,Clouds,dailyrainin,SoftwareType,DateUTC
2013-11-14 00:03:00,27.8,18.0,30.13,ENE,65,0.0,6.0,66,0.00,,,0.00,weatherlink.com 1.10,2013-11-14 05:03:00,
2013-11-14 00:18:00,28.3,18.0,30.12,North,10,1.0,6.0,66,0.00,,,0.00,weatherlink.com 1.10,2013-11-14 05:18:00,
2013-11-14 00:33:00,28.6,18.0,30.12,East,97,2.0,8.0,65,0.00,,,0.00,weatherlink.com 1.10,2013-11-14 05:33:00,
2013-11-14 00:48:00,28.7,18.0,30.11,SSE,162,2.0,8.0,65,0.00,,,0.00,weatherlink.com 1.10,2013-11-14 05:48:00,
2013-11-14 01:03:00,28.7,18.0,30.11,ESE,106,0.0,9.0,64,0.00,,,0.00,weatherlink.com 1.10,2013-11-14 06:03:00,
2013-11-14 01:18:00,28.9,18.0,30.11,South,181,2.0,11.0,64,0.00,,,0.00,weatherlink.com 1.10,2013-11-14 06:18:00,
2013-11-14 01:33:00,28.9,18.0,30.10,SW,233,0.0,5.0,64,0.00,,,0.00,weatherlink.com 1.10,2013-11-14 06:33:00,
2013-11-14 01:48:00,29.2,18.0,30.10,SE,145,4.0,17.0,63,0.00,,,0.00,weatherlink.com 1.10,2013-11-14 06:48:00,
2013-11-14 02:03:00,29.4,18.0,30.10,WSW,257,1.0,9.0,62,0.00,,,0.00,weatherlink.com 1.10,2013-11-14 07:03:00,
2013-11-14 02:18:00,29.5,17.0,30.09,NW,309,6.0,11.0,61,0.00,,,0.00,weatherlink.com 1.10,2013-11-14 07:18:00,
2013-11-14 02:33:00,29.7,18.0,30.09,East,98,1.0,6.0,61,0.00,,,0.00,weatherlink.com 1.10,2013-11-14 07:33:00,
2013-11-14 02:48:00,29.7,18.0,30.08,WSW,256,3.0,11.0,61,0.00,,,0.00,weatherlink.com 1.10,2013-11-14 07:48:00,
2013-11-14 03:03:00,29.8,18.0,30.07,SE,131,7.0,8.0,61,0.00,,,0.00,weatherlink.com 1.10,2013-11-14 08:03:00,
2013-11-14 03:18:00,30.0,18.0,30.07,West,271,3.0,11.0,60,0.00,,,0.00,weatherlink.com 1.10,2013-11-14 08:18:00,
2013-11-14 03:33:00,30.2,18.0,30.09,SE,138,2.0,8.0,60,0.00,,,0.00,weatherlink.com 1.10,2013-11-14 08:33:00,
2013-11-14 03:48:00,30.1,18.0,30.08,SSE,157,6.0,7.0,60,0.00,,,0.00,weatherlink.com 1.10,2013-11-14 08:48:00,
2013-11-14 04:03:00,29.9,17.0,30.07,WNW,289,2.0,6.0,60,0.00,,,0.00,weatherlink.com 1.10,2013-11-14 09:03:00,
2013-11-14 04:18:00,30.2,17.0,30.06,SE,134,1.0,7.0,59,0.00,,,0.00,weatherlink.com 1.10,2013-11-14 09:18:00,
2013-11-14 04:33:00,31.0,17.0,30.05,SW,222,1.0,11.0,57,0.00,,,0.00,weatherlink.com 1.10,2013-11-14 09:33:00,
2013-11-14 04:48:00,31.2,17.0,30.06,NNW,332,2.0,4.0,57,0.00,,,0.00,weatherlink.com 1.10,2013-11-14 09:48:00,
2013-11-14 05:03:00,31.3,17.0,30.06,West,281,3.0,8.0,56,0.00,,,0.00,weatherlink.com 1.10,2013-11-14 10:03:00,
2013-11-14 05:18:00,31.1,17.0,30.06,South,179,3.0,10.0,57,0.00,,,0.00,weatherlink.com 1.10,2013-11-14 10:18:00,
2013-11-14 05:33:00,31.1,17.0,30.06,SW,225,3.0,8.0,57,0.00,,,0.00,weatherlink.com 1.10,2013-11-14 10:33:00,
2013-11-14 05:49:00,30.7,17.0,30.06,SSW,212,1.0,6.0,58,0.00,,,0.00,weatherlink.com 1.10,2013-11-14 10:49:00,
2013-11-14 06:04:00,30.5,17.0,30.07,NW,309,2.0,9.0,58,0.00,,,0.00,weatherlink.com 1.10,2013-11-14 11:04:00,
2013-11-14 06:19:00,30.5,18.0,30.07,ESE,120,0.0,4.0,59,0.00,,,0.00,weatherlink.com 1.10,2013-11-14 11:19:00,
2013-11-14 06:34:00,30.2,17.0,30.07,SE,146,2.0,7.0,59,0.00,,,0.00,weatherlink.com 1.10,2013-11-14 11:34:00,
2013-11-14 06:49:00,29.9,17.0,30.08,WSW,245,4.0,7.0,59,0.00,,,0.00,weatherlink.com 1.10,2013-11-14 11:49:00,
2013-11-14 07:04:00,29.2,17.0,30.08,East,81,0.0,3.0,60,0.00,,,0.00,weatherlink.com 1.10,2013-11-14 12:04:00,
2013-11-14 07:19:00,28.4,17.0,30.08,West,263,3.0,3.0,62,0.00,,,0.00,weatherlink.com 1.10,2013-11-14 12:19:00,
2013-11-14 07:34:00,29.8,17.0,30.08,West,263,2.0,7.0,59,0.00,,,0.00,weatherlink.com 1.10,2013-11-14 12:34:00,
2013-11-14 07:49:00,30.6,17.0,30.08,West,278,2.0,4.0,57,0.00,,,0.00,weatherlink.com 1.10,2013-11-14 12:49:00,
2013-11-14 08:04:00,31.8,17.0,30.08,ESE,107,3.0,6.0,55,0.00,,,0.00,weatherlink.com 1.10,2013-11-14 13:04:00,
2013-11-14 08:19:00,32.8,17.0,30.08,ESE,108,2.0,6.0,53,0.00,,,0.00,weatherlink.com 1.10,2013-11-14 13:19:00,
2013-11-14 08:34:00,33.6,17.0,30.08,WNW,284,3.0,8.0,51,0.00,,,0.00,weatherlink.com 1.10,2013-11-14 13:34:00,
2013-11-14 08:49:00,35.0,17.0,30.08,NNW,342,3.0,7.0,49,0.00,,,0.00,weatherlink.com 1.10,2013-11-14 13:49:00,
2013-11-14 09:04:00,36.7,18.0,30.08,ESE,103,0.0,7.0,47,0.00,,,0.00,weatherlink.com 1.10,2013-11-14 14:04:00,
2013-11-14 09:19:00,37.6,18.0,30.08,WNW,291,4.0,4.0,45,0.00,,,0.00,weatherlink.com 1.10,2013-11-14 14:19:00,
2013-11-14 09:34:00,38.6,19.0,30.08,WSW,241,1.0,17.0,45,0.00,,,0.00,weatherlink.com 1.10,2013-11-14 14:34:00,
2013-11-14 09:49:00,39.3,19.0,30.08,SSW,203,1.0,14.0,44,0.00,,,0.00,weatherlink.com 1.10,2013-11-14 14:49:00,
2013-11-14 10:04:00,40.0,19.0,30.08,WSW,242,9.0,13.0,43,0.00,,,0.00,weatherlink.com 1.10,2013-11-14 15:04:00,
2013-11-14 10:19:00,40.2,19.0,30.08,WSW,252,8.0,16.0,43,0.00,,,0.00,weatherlink.com 1.10,2013-11-14 15:19:00,
2013-11-14 10:34:00,41.0,19.0,30.08,South,179,11.0,11.0,42,0.00,,,0.00,weatherlink.com 1.10,2013-11-14 15:34:00,
2013-11-14 10:49:00,41.7,20.0,30.07,WNW,287,5.0,11.0,42,0.00,,,0.00,weatherlink.com 1.10,2013-11-14 15:49:00,
2013-11-14 11:04:00,42.1,20.0,30.06,West,267,6.0,14.0,42,0.00,,,0.00,weatherlink.com 1.10,2013-11-14 16:04:00,
2013-11-14 11:19:00,43.0,20.0,30.06,SSW,193,5.0,14.0,40,0.00,,,0.00,weatherlink.com 1.10,2013-11-14 16:19:00,
2013-11-14 11:34:00,43.5,20.0,30.06,WSW,253,1.0,14.0,40,0.00,,,0.00,weatherlink.com 1.10,2013-11-14 16:34:00,
2013-11-14 11:49:00,43.9,21.0,30.06,South,191,8.0,14.0,41,0.00,,,0.00,weatherlink.com 1.10,2013-11-14 16:49:00,
2013-11-14 12:05:00,44.6,23.0,30.06,West,259,7.0,11.0,42,0.00,,,0.00,weatherlink.com 1.10,2013-11-14 17:05:00,
2013-11-14 12:20:00,45.0,22.0,30.05,NNW,333,6.0,10.0,41,0.00,,,0.00,weatherlink.com 1.10,2013-11-14 17:20:00,
2013-11-14 12:35:00,45.3,24.0,30.05,WSW,245,2.0,15.0,43,0.00,,,0.00,weatherlink.com 1.10,2013-11-14 17:35:00,
2013-11-14 12:50:00,45.6,24.0,30.04,West,277,6.0,11.0,43,0.00,,,0.00,weatherlink.com 1.10,2013-11-14 17:50:00,
2013-11-14 13:05:00,46.1,25.0,30.04,SW,218,4.0,12.0,44,0.00,,,0.00,weatherlink.com 1.10,2013-11-14 18:05:00,
2013-11-14 13:20:00,46.5,25.0,30.05,NW,322,5.0,11.0,44,0.00,,,0.00,weatherlink.com 1.10,2013-11-14 18:20:00,
2013-11-14 13:35:00,46.7,26.0,30.05,West,267,1.0,10.0,44,0.00,,,0.00,weatherlink.com 1.10,2013-11-14 18:35:00,
2013-11-14 13:50:00,46.5,26.0,30.05,WSW,253,5.0,12.0,45,0.00,,,0.00,weatherlink.com 1.10,2013-11-14 18:50:00,
2013-11-14 14:05:00,46.2,25.0,30.05,WNW,296,3.0,11.0,44,0.00,,,0.00,weatherlink.com 1.10,2013-11-14 19:05:00,
2013-11-14 14:20:00,46.4,25.0,30.05,East,93,1.0,7.0,44,0.00,,,0.00,weatherlink.com 1.10,2013-11-14 19:20:00,
2013-11-14 14:35:00,46.6,26.0,30.05,West,262,1.0,9.0,44,0.00,,,0.00,weatherlink.com 1.10,2013-11-14 19:35:00,
2013-11-14 14:50:00,46.2,25.0,30.05,WNW,290,7.0,8.0,44,0.00,,,0.00,weatherlink.com 1.10,2013-11-14 19:50:00,
2013-11-14 15:05:00,46.0,26.0,30.05,WNW,297,3.0,8.0,45,0.00,,,0.00,weatherlink.com 1.10,2013-11-14 20:05:00,
2013-11-14 15:20:00,45.7,26.0,30.05,NW,304,5.0,7.0,46,0.00,,,0.00,weatherlink.com 1.10,2013-11-14 20:20:00,
2013-11-14 15:35:00,45.0,26.0,30.05,South,172,1.0,6.0,47,0.00,,,0.00,weatherlink.com 1.10,2013-11-14 20:35:00,
2013-11-14 15:50:00,43.2,26.0,30.06,ESE,122,0.0,3.0,52,0.00,,,0.00,weatherlink.com 1.10,2013-11-14 20:50:00,
2013-11-14 16:05:00,42.6,26.0,30.06,East,85,2.0,3.0,52,0.00,,,0.00,weatherlink.com 1.10,2013-11-14 21:05:00,
2013-11-14 16:20:00,41.7,26.0,30.06,SE,132,1.0,2.0,54,0.00,,,0.00,weatherlink.com 1.10,2013-11-14 21:20:00,
2013-11-14 16:35:00,40.8,26.0,30.07,SSW,194,1.0,3.0,56,0.00,,,0.00,weatherlink.com 1.10,2013-11-14 21:35:00,
2013-11-14 16:50:00,39.4,26.0,30.07,SSW,193,2.0,4.0,59,0.00,,,0.00,weatherlink.com 1.10,2013-11-14 21:50:00,
2013-11-14 17:05:00,37.1,25.0,30.07,SSW,192,2.0,3.0,63,0.00,,,0.00,weatherlink.com 1.10,2013-11-14 22:05:00,
2013-11-14 17:20:00,36.0,26.0,30.07,SSE,148,1.0,2.0,66,0.00,,,0.00,weatherlink.com 1.10,2013-11-14 22:20:00,
2013-11-14 17:35:00,36.4,25.0,30.08,SE,139,1.0,4.0,63,0.00,,,0.00,weatherlink.com 1.10,2013-11-14 22:35:00,
2013-11-14 17:50:00,34.4,25.0,30.08,ENE,71,2.0,3.0,69,0.00,,,0.00,weatherlink.com 1.10,2013-11-14 22:50:00,
2013-11-14 18:05:00,33.4,24.0,30.08,SSE,159,2.0,3.0,69,0.00,,,0.00,weatherlink.com 1.10,2013-11-14 23:05:00,
2013-11-14 18:20:00,33.5,25.0,30.08,ENE,71,0.0,3.0,70,0.00,,,0.00,weatherlink.com 1.10,2013-11-14 23:20:00,
2013-11-14 18:50:00,38.6,24.0,30.09,ESE,115,3.0,7.0,57,0.00,,,0.00,weatherlink.com 1.10,2013-11-14 23:50:00,
2013-11-14 19:05:00,36.1,24.0,30.09,East,101,2.0,3.0,62,0.00,,,0.00,weatherlink.com 1.10,2013-11-15 00:05:00,
2013-11-14 19:20:00,36.8,24.0,30.08,West,259,4.0,4.0,59,0.00,,,0.00,weatherlink.com 1.10,2013-11-15 00:20:00,
2013-11-14 19:35:00,40.6,24.0,30.08,SE,137,1.0,7.0,51,0.00,,,0.00,weatherlink.com 1.10,2013-11-15 00:35:00,
2013-11-14 19:50:00,40.6,23.0,30.09,ESE,115,2.0,4.0,50,0.00,,,0.00,weatherlink.com 1.10,2013-11-15 00:50:00,
2013-11-14 20:05:00,40.3,23.0,30.09,ENE,67,2.0,3.0,50,0.00,,,0.00,weatherlink.com 1.10,2013-11-15 01:05:00,
2013-11-14 20:20:00,39.3,22.0,30.09,NE,56,1.0,3.0,50,0.00,,,0.00,weatherlink.com 1.10,2013-11-15 01:20:00,
2013-11-14 20:35:00,39.2,22.0,30.09,SE,134,0.0,4.0,50,0.00,,,0.00,weatherlink.com 1.10,2013-11-15 01:35:00,
2013-11-14 20:50:00,38.7,22.0,30.10,East,91,2.0,3.0,51,0.00,,,0.00,weatherlink.com 1.10,2013-11-15 01:50:00,
2013-11-14 21:05:00,37.0,21.0,30.10,SSE,155,1.0,3.0,52,0.00,,,0.00,weatherlink.com 1.10,2013-11-15 02:05:00,
2013-11-14 21:20:00,36.7,22.0,30.10,ESE,113,0.0,3.0,55,0.00,,,0.00,weatherlink.com 1.10,2013-11-15 02:20:00,
2013-11-14 21:35:00,38.1,22.0,30.09,ENE,61,4.0,6.0,52,0.00,,,0.00,weatherlink.com 1.10,2013-11-15 02:35:00,
2013-11-14 21:50:00,37.9,20.0,30.09,SE,138,3.0,5.0,49,0.00,,,0.00,weatherlink.com 1.10,2013-11-15 02:50:00,
2013-11-14 22:05:00,39.0,19.0,30.09,South,185,0.0,7.0,45,0.00,,,0.00,weatherlink.com 1.10,2013-11-15 03:05:00,
2013-11-14 22:20:00,35.5,21.0,30.09,East,99,2.0,3.0,56,0.00,,,0.00,weatherlink.com 1.10,2013-11-15 03:20:00,
2013-11-14 22:35:00,37.6,19.0,30.09,ENE,68,5.0,5.0,47,0.00,,,0.00,weatherlink.com 1.10,2013-11-15 03:35:00,
2013-11-14 22:50:00,39.1,18.0,30.09,West,259,1.0,7.0,43,0.00,,,0.00,weatherlink.com 1.10,2013-11-15 03:50:00,
2013-11-14 23:05:00,39.9,18.0,30.09,South,181,0.0,9.0,42,0.00,,,0.00,weatherlink.com 1.10,2013-11-15 04:05:00,
2013-11-14 23:20:00,40.4,18.0,30.09,SSW,208,3.0,10.0,40,0.00,,,0.00,weatherlink.com 1.10,2013-11-15 04:20:00,
2013-11-14 23:35:00,40.2,18.0,30.09,ENE,60,1.0,12.0,40,0.00,,,0.00,weatherlink.com 1.10,2013-11-15 04:35:00,
2013-11-14 23:50:00,40.2,17.0,30.10,WNW,290,3.0,6.0,39,0.00,,,0.00,weatherlink.com 1.10,2013-11-15 04:50:00,